Flag for New Zealand Weather past 2 weeks in Christchurch, New Zealand

Now
79 °F

Warm.


Feels Like: 80 °F
Forecast: 54 / 71 °F
Wind: 16 mph from North

Location: Christchurch Airport

Current Time: Dec 20, 2014 at 1:13:15 PM

Latest Report: Dec 20, 2014 at 12:30 PM


Visibility: N/A

Pressure: 29.71 "Hg

Humidity: 48%

Dew point: 57 °F

Location of ChristchurchLocation

Historic Weather in Christchurch — Graph

°F

Christchurch temperature yesterday

Maximum temperature yesterday: 73 °F (at 11:00 AM)
Minimum temperature yesterday: 50 °F (at 2:30 AM)
Average temperature yesterday: 63 °F

Past Weeks' High & Low Weather Summary

 TemperatureHumidityPressure
High81 °F (Dec 7, 10:30 AM)100% (Dec 10, 6:00 AM)30.30 "Hg (Dec 10, 6:00 AM)
Low41 °F (Dec 14, 5:00 AM)34% (Dec 7, 10:30 AM)29.59 "Hg (Dec 10, 2:00 AM)
Average57 °F76%29.94 "Hg
* Reported Dec 5 12:00 Noon — Dec 20 12:00 Noon, Christchurch, Weather by CustomWeather, © 2014

Note: Actual official high and low records may vary slightly from our data, if they occured in-between our weather recording intervals... More about our weather records

Advertising

Christchurch weather history for previous 24 hours

 ConditionsComfort  
Time TempWeatherWind HumidityBarometerVisibility
12:00 PM
Dec 20
79 °FWarm.15 mph48%29.71 "HgN/A
11:30 AM79 °FWarm.13 mph51%29.71 "HgN/A
11:00 AM77 °FPassing clouds.12 mph54%29.71 "HgN/A
10:30 AM75 °FPassing clouds.13 mph57%29.74 "HgN/A
10:00 AM73 °FMild.13 mph57%29.74 "HgN/A
9:30 AM73 °FMild.12 mph57%29.74 "HgN/A
9:00 AM73 °FPassing clouds.13 mph57%29.74 "HgN/A
8:30 AM73 °FMild.14 mph57%29.74 "HgN/A
8:00 AM72 °FMild.14 mph57%29.74 "HgN/A
7:30 AM72 °FMild.12 mph57%29.74 "HgN/A
7:00 AM70 °FPassing clouds.10 mph60%29.74 "HgN/A
6:30 AM72 °FMild.15 mph57%29.74 "HgN/A
6:00 AM70 °FMild.16 mph57%29.74 "HgN/A
5:30 AM70 °FMild.12 mph60%29.74 "HgN/A
5:00 AM68 °FMild.13 mph64%29.74 "HgN/A
4:30 AM66 °FMild.10 mph68%29.74 "HgN/A
4:00 AM64 °FMild.7 mph78%29.77 "HgN/A
3:30 AM63 °FMild.3 mph83%29.77 "HgN/A
3:00 AM63 °FMild.3 mph88%29.77 "HgN/A
2:30 AM61 °FCool.1 mph94%29.80 "HgN/A
2:00 AM61 °FCool.7 mph94%29.80 "HgN/A
1:30 AM61 °FCool.9 mph94%29.80 "HgN/A
1:00 AM61 °FSprinkles. Overcast.9 mph94%29.83 "HgN/A
12:30 AM61 °FLight rain. Overcast.10 mph94%29.86 "HgN/A
12:00 AM63 °FPassing clouds.6 mph88%29.86 "HgN/A
11:30 PM
Dec 19
63 °FMild.7 mph88%29.86 "HgN/A
11:00 PM63 °FMild.8 mph88%29.86 "HgN/A
10:30 PM63 °FMild.9 mph83%29.86 "HgN/A
10:00 PM63 °FMild.8 mph83%29.86 "HgN/A
9:30 PM63 °FMild.8 mph83%29.83 "HgN/A
9:00 PM64 °FMild.9 mph78%29.83 "HgN/A
8:30 PM64 °FMild.10 mph78%29.83 "HgN/A
8:00 PM64 °FPassing clouds.10 mph78%29.83 "HgN/A
7:30 PM64 °FPartly sunny.12 mph78%29.83 "HgN/A
7:00 PM64 °FPassing clouds.12 mph78%29.83 "HgN/A
6:30 PM66 °FPassing clouds.14 mph73%29.83 "HgN/A
6:00 PM66 °FMild.15 mph73%29.83 "HgN/A
5:30 PM68 °FMild.15 mph69%29.83 "HgN/A
4:30 PM72 °FMild.15 mph57%29.86 "HgN/A
4:00 PM72 °FMild.14 mph57%29.86 "HgN/A
3:30 PM72 °FMild.15 mph57%29.86 "HgN/A
3:00 PM72 °FMild.15 mph57%29.83 "HgN/A
2:30 PM73 °FMild.14 mph57%29.86 "HgN/A
2:00 PM73 °FMild.16 mph53%29.86 "HgN/A
1:30 PM72 °FMild.14 mph57%29.86 "HgN/A
1:00 PM73 °FMild.13 mph53%29.86 "HgN/A
Weather by CustomWeather, © 2014

See weather overviewHow to use our weather pages